Regional Weather Roundup
Issued by NWS

Home | Current Version | Previous Version | Text Only | Print | Product List | Glossary On
Versions: 1 2 3 4 5 6 7 8 9 10 11 12 13 14 15 16 17 18 19 20 21 22 23 24 25 26 27 28 29 30 31 32 33 34 35 36 37 38 39 40 41 42 43 44 45 46 47 48 49 50
000
ASUS43 KDMX 251401
RWRIA

WEATHER ROUNDUP FOR IOWA
NATIONAL WEATHER SERVICE DES MOINES IA
900 AM CDT WED MAY 25 2022

NOTE: "FAIR" INDICATES FEW OR NO CLOUDS BELOW 12,000 FEET WITH NO
SIGNIFICANT WEATHER AND/OR OBSTRUCTIONS TO VISIBILITY.

* - THESE STATIONS ARE NOT NWS STATIONS...THUS NOT UNDER NWS
QUALITY CONTROL.  THEY ALSO DO NOT REPORT WEATHER SUCH
AS PRECIPITATION OR FOG.

IAZ001>003-012>014-020>022-031>034-043>046-251500-
   NORTHWEST IOWA

CITY           SKY/WX    TMP DP  RH WIND       PRES   REMARKS
CARROLL *      FOG       50  50 100 NE16G22   29.85S VSB 1
DENISON *      PTSUNNY   50  48  93 NE12G22   29.88R
LE MARS *      CLOUDY    50  50 100 NE13G22   29.91F
MAURICE *      CLOUDY    48  48 100 NE16      29.93
SHELDON *      LGT RAIN  48  48 100 NE18      29.93F
SIOUX CITY     CLOUDY    51  48  89 NE10G21   29.91F
SPENCER        LGT RAIN  51  47  86 NE20      29.94F
STORM LAKE *   PTSUNNY   48  48 100 NE17G26   29.89F FOG
$$

IAZ055>058-069>071-079>083-090>094-251500-
   SOUTHWEST IOWA

CITY           SKY/WX    TMP DP  RH WIND       PRES   REMARKS
ATLANTIC *     CLOUDY    50  50 100 NE12      29.82S FOG
AUDUBON *      CLOUDY    50  48  93 NE8       29.85S
CLARINDA *     CLOUDY    55  55 100 NE9       29.79F
COUNCIL BLFS * CLOUDY    50  50 100 N15       29.80  FOG
CRESTON *      CLOUDY    52  52 100 NE13      29.79F FOG
HARLAN  *      CLOUDY    50  50 100 NE10      29.84S FOG
LAMONI         CLOUDY    56  54  93 NE9       29.77F FOG
RED OAK *      CLOUDY    54  52  94 NE12G18   29.80F FOG
SHENANDOAH *   CLOUDY    54  54 100 NE14      29.77F FOG
$$

IAZ047>049-059>061-072>074-084-251500-
   CENTRAL IOWA

CITY           SKY/WX    TMP DP  RH WIND       PRES   REMARKS
AMES           CLOUDY    52  50  93 NE8       29.84F
ANKENY *       LGT RAIN  52  52 100 NE7       29.84S
BOONE *        CLOUDY    50  50 100 NE12      29.87R FOG
CHARITON *     CLOUDY    54  54 100 NE7       29.79  FOG
DES MOINES     LGT RAIN  52  51  97 NE7       29.82F FOG
GRINNELL*      RAIN      54  53  96 NE7       29.84S
KNOXVILLE *    CLOUDY    54  52  94 NE6       29.80F FOG
MARSHALLTOWN   CLOUDY    51  50  96 NE9       29.84F FOG
NEWTON *       CLOUDY    52  52 100 NE6       29.82F FOG
PELLA *        RAIN      53  52  97 NE3       29.82S FOG
PERRY *        CLOUDY    52  50  94 NE8       29.85R FOG
$$

IAZ004>006-015-016-023>025-035-036-251500-
   NORTH CENTRAL IOWA

CITY           SKY/WX    TMP DP  RH WIND       PRES   REMARKS
ALGONA *       MOSUNNY   50  50 100 NE13G20   29.90F
CLARION *      CLOUDY    50  48  93 NE16      29.89F
ESTHERVILLE    CLOUDY    50  47  89 NE20G26   29.94F
FORT DODGE *   CLOUDY    49  48  97 NE13G18   29.88F FOG
MASON CITY     LGT RAIN  48  47  96 NE16      29.93S
FOREST CITY *  DRIZZLE   46  46 100 NE13G20   29.92F
WEBSTER CITY * CLOUDY    50  50 100 NE14      29.85F FOG
IOWA FALLS *   RAIN      50  50 100 NE12      29.88F
$$

IAZ007>011-017>019-026>030-037>042-050>054-066-251500-
   NORTHEAST IOWA

CITY           SKY/WX    TMP DP  RH WIND       PRES   REMARKS
CEDAR RAPIDS   LGT RAIN  53  53 100 E14       29.83F FOG
CHARLES CITY * RAIN      48  48 100 NE10      29.91F
CLINTON *      LGT RAIN  58  32  37 E13       29.88F
DECORAH *      LGT RAIN  48  48 100 E9        29.90F
DUBUQUE        HVY RAIN  53  50  89 CALM      29.90R FOG
MONTICELLO *     N/A    N/A N/A N/A MISG        N/A
OELWEIN *      CLOUDY    50  48  93 E13       29.87F FOG
WATERLOO       CLOUDY    51  49  92 E9        29.87F FOG
$$

IAZ064-065-067-068-078-251500-
   EAST CENTRAL IOWA

CITY           SKY/WX    TMP DP  RH WIND       PRES   REMARKS
DAVENPORT      LGT RAIN  59  57  93 E13       29.87F
IOWA CITY      LGT RAIN  57  53  86 E8        29.85S
MT. PLEASANT * LGT RAIN  63  63 100 SE9       29.81F
MUSCATINE *    CLOUDY    59  59 100 VRB3      29.84F
QUAD CITIES    CLOUDY    62  59  90 E9        29.84F
$$

IAZ062-063-075>077-085>089-095>099-251500-
   SOUTHEAST IOWA

CITY           SKY/WX    TMP DP  RH WIND       PRES   REMARKS
BURLINGTON     LGT RAIN  64  63  96 E6        29.81F FOG
FAIRFIELD *    PTSUNNY   59  59 100 E10       29.80F FOG
FORT MADISON * LGT RAIN  64  64 100 SE8       29.80F
KEOKUK *       MOSUNNY   66  66 100 SE8       29.79F
OSKALOOSA *    CLOUDY    57  56  95 E6        29.81  FOG
CENTERVILLE *  FOG       55  55 100 CALM      29.80S VSB 1/4
OTTUMWA        CLOUDY    56  55  97 E6        29.79F FOG
WASHINGTON *   CLOUDY    59  59 100 E9        29.81S FOG
$$

ABBREVIATIONS USED IN REMARKS
   TC - TEMPERATURES IN CELSIUS
  WCI - WIND CHILL INDEX
   HX - HEAT INDEX
  VSB - VISIBILITY
$$




USA.gov is the U.S. government's official web portal to all federal, state and local government web resources and services.